AKJ091 VOMM-VOBL

Flight info

Callsign AKJ091
Flight time 0h 36m
Altitude 16000
Route MMV W117 BIA
Aircraft B38M/M-SDE1FGHILORVWXY/HB1

Departure

Time 2026-04-25 07:40
Airport Chennai International Airport (VOMM)

Arrival

Time 2026-04-25 08:16
Airport Kempegowda International Airport Bengaluru (VOBL)
Time Latitude Longitude Altitude Speed Heading
2026-04-25 07:08 12.98466 80.16600 58 ft 0 kts 159°
2026-04-25 07:29 12.98479 80.16595 55 ft 2 kts 162°
2026-04-25 07:30 12.98494 80.16590 54 ft 2 kts 169°
2026-04-25 07:30 12.98511 80.16589 54 ft 2 kts 187°
2026-04-25 07:30 12.98526 80.16595 53 ft 2 kts 230°
2026-04-25 07:30 12.98532 80.16606 52 ft 1 kts 248°
2026-04-25 07:31 12.98532 80.16607 52 ft 0 kts 249°
2026-04-25 07:35 12.98530 80.16602 51 ft 2 kts 249°
2026-04-25 07:35 12.98523 80.16583 53 ft 4 kts 249°
2026-04-25 07:35 12.98511 80.16550 53 ft 6 kts 249°
2026-04-25 07:35 12.98494 80.16505 56 ft 8 kts 250°
2026-04-25 07:36 12.98474 80.16447 56 ft 10 kts 249°
2026-04-25 07:36 12.98448 80.16375 56 ft 12 kts 249°
2026-04-25 07:36 12.98418 80.16293 53 ft 13 kts 249°
2026-04-25 07:36 12.98385 80.16202 54 ft 15 kts 250°
2026-04-25 07:37 12.98348 80.16096 56 ft 17 kts 250°
2026-04-25 07:37 12.98306 80.15981 51 ft 18 kts 244°
2026-04-25 07:37 12.98300 80.15865 50 ft 17 kts 288°
2026-04-25 07:37 12.98337 80.15744 58 ft 18 kts 286°
2026-04-25 07:38 12.98371 80.15613 58 ft 20 kts 285°
2026-04-25 07:38 12.98393 80.15530 57 ft 8 kts 285°
2026-04-25 07:38 12.98409 80.15472 58 ft 9 kts 285°
2026-04-25 07:38 12.98444 80.15434 55 ft 7 kts 331°
2026-04-25 07:39 12.98467 80.15440 56 ft 2 kts 59°
2026-04-25 07:39 12.98479 80.15465 82 ft 7 kts 67°
2026-04-25 07:39 12.98523 80.15581 55 ft 34 kts 69°
2026-04-25 07:39 12.98715 80.16094 54 ft 118 kts 69°
2026-04-25 07:40 12.99095 80.17113 85 ft 183 kts 69°
2026-04-25 07:40 12.99570 80.18397 666 ft 203 kts 74°
2026-04-25 07:40 13.00099 80.19796 1576 ft 211 kts 71°
2026-04-25 07:40 13.00651 80.21193 2522 ft 218 kts 71°
2026-04-25 07:41 13.01551 80.22530 3037 ft 245 kts 38°
2026-04-25 07:41 13.03153 80.23044 3892 ft 243 kts 359°
2026-04-25 07:41 13.03769 80.22960 4162 ft 249 kts 346°
2026-04-25 07:41 13.04224 80.22791 4360 ft 251 kts 333°
2026-04-25 07:42 13.05125 80.22065 4901 ft 252 kts 309°
2026-04-25 07:42 13.05775 80.20410 5632 ft 255 kts 272°
2026-04-25 07:42 13.05728 80.17942 6529 ft 268 kts 273°
2026-04-25 07:42 13.05827 80.16643 6836 ft 280 kts 277°
2026-04-25 07:43 13.06061 80.14676 7761 ft 283 kts 278°
2026-04-25 07:43 13.06373 80.12616 8334 ft 301 kts 281°
2026-04-25 07:43 13.06754 80.10474 9126 ft 307 kts 282°
2026-04-25 07:43 13.07149 80.08308 9986 ft 313 kts 283°
2026-04-25 07:44 13.07582 80.06064 10494 ft 330 kts 284°
2026-04-25 07:44 13.08227 80.02907 11143 ft 350 kts 284°
2026-04-25 07:44 13.08565 80.01244 11586 ft 355 kts 283°
2026-04-25 07:44 13.09056 79.98760 12401 ft 357 kts 283°
2026-04-25 07:45 13.09543 79.96274 13130 ft 362 kts 283°
2026-04-25 07:45 13.10036 79.93726 13859 ft 365 kts 283°
2026-04-25 07:45 13.10532 79.91167 14507 ft 369 kts 282°
2026-04-25 07:45 13.11030 79.88582 15168 ft 371 kts 282°
2026-04-25 07:46 13.11534 79.85969 15818 ft 374 kts 282°
2026-04-25 07:46 13.12039 79.83348 16465 ft 376 kts 281°
2026-04-25 07:46 13.12548 79.80699 17083 ft 379 kts 281°
2026-04-25 07:46 13.13060 79.78038 17686 ft 382 kts 280°
2026-04-25 07:47 13.13576 79.75355 18243 ft 385 kts 279°
2026-04-25 07:47 13.14097 79.72649 18755 ft 387 kts 279°
2026-04-25 07:47 13.14619 79.69929 19282 ft 389 kts 279°
2026-04-25 07:47 13.15136 79.67234 19774 ft 391 kts 280°
2026-04-25 07:48 13.15662 79.64493 20273 ft 392 kts 280°
2026-04-25 07:48 13.16190 79.61733 20757 ft 394 kts 279°
2026-04-25 07:48 13.16721 79.58957 21233 ft 396 kts 279°
2026-04-25 07:48 13.17253 79.56174 21680 ft 400 kts 279°
2026-04-25 07:49 13.17802 79.53332 21829 ft 411 kts 280°
2026-04-25 07:49 13.18377 79.50400 21830 ft 426 kts 280°
2026-04-25 07:49 13.18970 79.47372 21829 ft 439 kts 280°
2026-04-25 07:49 13.19572 79.44290 21834 ft 452 kts 280°
2026-04-25 07:50 13.20196 79.41081 21834 ft 465 kts 280°
2026-04-25 07:50 13.20834 79.37783 21847 ft 476 kts 279°
2026-04-25 07:50 13.21472 79.34446 21872 ft 467 kts 279°
2026-04-25 07:50 13.22058 79.31235 21895 ft 447 kts 279°
2026-04-25 07:51 13.22619 79.28154 21907 ft 430 kts 279°
2026-04-25 07:51 13.23166 79.25171 21903 ft 424 kts 279°
2026-04-25 07:51 13.23721 79.22202 21886 ft 423 kts 279°
2026-04-25 07:51 13.24278 79.19238 21886 ft 423 kts 279°
2026-04-25 07:52 13.24836 79.16274 21877 ft 423 kts 279°
2026-04-25 07:52 13.25386 79.13348 21882 ft 423 kts 279°
2026-04-25 07:52 13.25951 79.10348 21900 ft 423 kts 279°
2026-04-25 07:52 13.26508 79.07385 21914 ft 422 kts 279°
2026-04-25 07:53 13.27065 79.04423 21910 ft 421 kts 279°
2026-04-25 07:53 13.27612 79.01506 21908 ft 420 kts 279°
2026-04-25 07:53 13.28164 78.98566 21910 ft 420 kts 279°
2026-04-25 07:53 13.28715 78.95625 21926 ft 420 kts 279°
2026-04-25 07:54 13.29250 78.92672 21924 ft 419 kts 275°
2026-04-25 07:54 13.29250 78.89715 21939 ft 415 kts 263°
2026-04-25 07:54 13.29051 78.86746 21921 ft 416 kts 264°
2026-04-25 07:54 13.28854 78.83779 21921 ft 416 kts 264°
2026-04-25 07:55 13.28650 78.80852 21941 ft 416 kts 264°
2026-04-25 07:55 13.28439 78.77890 21947 ft 416 kts 264°
2026-04-25 07:55 13.28225 78.74921 21937 ft 416 kts 264°
2026-04-25 07:55 13.28011 78.71958 21943 ft 416 kts 264°
2026-04-25 07:56 13.27797 78.68997 21941 ft 416 kts 264°
2026-04-25 07:56 13.27582 78.66031 21953 ft 415 kts 264°
2026-04-25 07:56 13.27368 78.63074 21954 ft 415 kts 264°
2026-04-25 07:56 13.27153 78.60121 21953 ft 415 kts 264°
2026-04-25 07:57 13.26940 78.57192 21958 ft 404 kts 264°
2026-04-25 07:57 13.26735 78.54366 21978 ft 389 kts 264°
2026-04-25 07:57 13.26534 78.51632 21809 ft 379 kts 264°
2026-04-25 07:57 13.26342 78.48991 21496 ft 375 kts 264°
2026-04-25 07:58 13.26233 78.46320 21064 ft 375 kts 273°
2026-04-25 07:58 13.26631 78.43669 20643 ft 375 kts 277°
2026-04-25 07:58 13.27043 78.41030 20270 ft 373 kts 277°
2026-04-25 07:58 13.27457 78.38409 19888 ft 371 kts 277°
2026-04-25 07:59 13.27872 78.35795 19490 ft 370 kts 277°
2026-04-25 07:59 13.28287 78.33188 19097 ft 369 kts 277°
2026-04-25 07:59 13.28697 78.30616 18702 ft 369 kts 277°
2026-04-25 07:59 13.29110 78.28023 18307 ft 369 kts 277°
2026-04-25 08:00 13.29524 78.25426 17865 ft 368 kts 278°
2026-04-25 08:00 13.29937 78.22829 17453 ft 367 kts 278°
2026-04-25 08:00 13.30336 78.20243 17047 ft 365 kts 275°
2026-04-25 08:00 13.30377 78.17635 16588 ft 365 kts 269°
2026-04-25 08:01 13.30373 78.15042 16221 ft 363 kts 270°
2026-04-25 08:01 13.30395 78.12452 15838 ft 362 kts 271°
2026-04-25 08:01 13.30429 78.09868 15454 ft 361 kts 271°
2026-04-25 08:01 13.30471 78.07303 15065 ft 360 kts 272°
2026-04-25 08:02 13.30515 78.04731 14674 ft 359 kts 272°
2026-04-25 08:02 13.30561 78.02167 14277 ft 359 kts 272°
2026-04-25 08:02 13.30606 77.99634 13894 ft 359 kts 273°
2026-04-25 08:02 13.30650 77.97064 13468 ft 359 kts 273°
2026-04-25 08:03 13.30695 77.94500 13060 ft 358 kts 272°
2026-04-25 08:03 13.30738 77.92031 12865 ft 350 kts 272°
2026-04-25 08:03 13.30780 77.89563 12706 ft 341 kts 272°
2026-04-25 08:03 13.30822 77.87152 12551 ft 333 kts 272°
2026-04-25 08:04 13.30863 77.84803 12404 ft 324 kts 273°
2026-04-25 08:04 13.30901 77.82522 12245 ft 316 kts 273°
2026-04-25 08:04 13.30939 77.80295 12134 ft 308 kts 273°
2026-04-25 08:04 13.30973 77.78162 12035 ft 298 kts 272°
2026-04-25 08:05 13.30990 77.76045 11694 ft 298 kts 272°
2026-04-25 08:05 13.31008 77.73900 11124 ft 302 kts 272°
2026-04-25 08:05 13.31027 77.71733 10555 ft 304 kts 272°
2026-04-25 08:05 13.31045 77.69565 10063 ft 303 kts 272°
2026-04-25 08:06 13.31063 77.67415 9613 ft 298 kts 272°
2026-04-25 08:06 13.31078 77.65309 9230 ft 291 kts 272°
2026-04-25 08:06 13.31094 77.63254 8903 ft 283 kts 272°
2026-04-25 08:06 13.31110 77.61268 8608 ft 275 kts 272°
2026-04-25 08:07 13.31124 77.59356 8328 ft 266 kts 272°
2026-04-25 08:07 13.31138 77.57497 8092 ft 256 kts 271°
2026-04-25 08:07 13.31152 77.55697 7798 ft 248 kts 271°
2026-04-25 08:07 13.31165 77.53950 7493 ft 241 kts 271°
2026-04-25 08:08 13.31177 77.52266 7277 ft 231 kts 271°
2026-04-25 08:08 13.31189 77.50648 7141 ft 221 kts 271°
2026-04-25 08:08 13.31200 77.49090 7014 ft 217 kts 271°
2026-04-25 08:08 13.31066 77.47545 6922 ft 217 kts 249°
2026-04-25 08:09 13.30261 77.46300 6903 ft 213 kts 216°
2026-04-25 08:09 13.28975 77.45628 6971 ft 203 kts 192°
2026-04-25 08:09 13.27618 77.45290 7005 ft 200 kts 189°
2026-04-25 08:09 13.26255 77.44973 6959 ft 201 kts 189°
2026-04-25 08:10 13.24891 77.44673 6954 ft 200 kts 188°
2026-04-25 08:10 13.23523 77.44501 6913 ft 195 kts 168°
2026-04-25 08:10 13.22302 77.44977 6907 ft 186 kts 135°
2026-04-25 08:10 13.21598 77.46041 6934 ft 182 kts 106°
2026-04-25 08:11 13.21288 77.47313 6804 ft 184 kts 99°
2026-04-25 08:11 13.21095 77.48607 6587 ft 183 kts 95°
2026-04-25 08:11 13.20977 77.49902 6356 ft 181 kts 93°
2026-04-25 08:11 13.20910 77.51179 6140 ft 182 kts 92°
2026-04-25 08:12 13.20870 77.52480 5895 ft 182 kts 91°
2026-04-25 08:12 13.20843 77.53782 5696 ft 182 kts 91°
2026-04-25 08:12 13.20827 77.55083 5445 ft 182 kts 91°
2026-04-25 08:12 13.20812 77.56377 5238 ft 180 kts 90°
2026-04-25 08:13 13.20802 77.57666 4995 ft 181 kts 90°
2026-04-25 08:13 13.20791 77.58963 4807 ft 182 kts 90°
2026-04-25 08:13 13.20782 77.60248 4543 ft 178 kts 91°
2026-04-25 08:14 13.20762 77.62637 4151 ft 149 kts 91°
2026-04-25 08:14 13.20754 77.63659 3940 ft 142 kts 91°
2026-04-25 08:14 13.20748 77.64673 3780 ft 144 kts 91°
2026-04-25 08:14 13.20736 77.65687 3637 ft 140 kts 92°
2026-04-25 08:15 13.20732 77.66684 3350 ft 138 kts 90°
2026-04-25 08:15 13.20727 77.67673 3202 ft 140 kts 91°
2026-04-25 08:15 13.20716 77.68677 3025 ft 141 kts 90°
2026-04-25 08:15 13.20709 77.69629 2972 ft 121 kts 91°
2026-04-25 08:16 13.20702 77.70388 2971 ft 89 kts 90°
2026-04-25 08:16 13.20698 77.70900 2970 ft 54 kts 90°
2026-04-25 08:16 13.20694 77.71131 2971 ft 16 kts 94°
2026-04-25 08:16 13.20647 77.71178 2971 ft 9 kts 168°
2026-04-25 08:17 13.20576 77.71178 2970 ft 13 kts 181°
2026-04-25 08:17 13.20518 77.71236 2969 ft 13 kts 100°
2026-04-25 08:17 13.20463 77.71281 2968 ft 10 kts 184°
2026-04-25 08:17 13.20401 77.71277 2971 ft 11 kts 184°
2026-04-25 08:18 13.20303 77.71274 2971 ft 12 kts 180°
2026-04-25 08:18 13.20242 77.71250 2971 ft 9 kts 250°
2026-04-25 08:18 13.20239 77.71186 2971 ft 9 kts 269°
2026-04-25 08:18 13.20240 77.71115 2971 ft 10 kts 273°
2026-04-25 08:19 13.20238 77.71090 2971 ft 1 kts 244°
2026-04-25 08:19 13.20226 77.71082 2971 ft 4 kts 207°
2026-04-25 08:19 13.20196 77.71080 2971 ft 5 kts 180°
2026-04-25 08:19 13.20192 77.71080 2971 ft 0 kts 180°
2026-04-25 10:24 13.20193 77.71080 2971 ft 0 kts 180°